Flag for Norway Weather past 2 weeks in Drammen, Norway

Now
50 °F

Sprinkles. Fog.


Feels Like: 43 °F
Forecast: 45 / 52 °F
Wind: 24 mph from Northwest

Location: Oslo / Fornebu

Current Time: Oct 20, 2014 at 10:41:23 AM

Latest Report: Oct 20, 2014 at 9:50 AM


Visibility: 2 mi

Pressure: 29.39 "Hg

Humidity: 100%

Dew point: 50 °F

Location of DrammenLocation

Historic Weather in Drammen — Graph

°F

Drammen temperature yesterday

Maximum temperature yesterday: 55 °F (at 12:20 PM)
Minimum temperature yesterday: 52 °F (at 4:50 PM)
Average temperature yesterday: 54 °F

Past Weeks' High & Low Weather Summary

 TemperatureHumidityPressure
High61 °F (Oct 6, 1:50 PM)100% (Oct 10, 1:20 AM)30.04 "Hg (Oct 10, 1:20 AM)
Low48 °F (Oct 12, 2:20 AM)51% (Oct 7, 11:50 AM)29.12 "Hg (Oct 19, 6:20 PM)
Average52 °F80%29.67 "Hg
* Reported Oct 5 9:20 AM — Oct 20 9:20 AM, Drammen, Weather by CustomWeather, © 2014

Note: Actual official high and low records may vary slightly from our data, if they occured in-between our weather recording intervals... More about our weather records

Advertising

Drammen weather history for previous 24 hours

 ConditionsComfort  
Time TempWeatherWind HumidityBarometerVisibility
9:20 AM
Oct 20
52 °FSprinkles. Partly sunny.22 mph100%29.36 "HgN/A
8:50 AM52 °FLight rain. Passing clouds.20 mph100%29.36 "HgN/A
8:20 AM52 °FPassing clouds.22 mph94%29.33 "HgN/A
7:50 AM52 °FPassing clouds.22 mph100%29.33 "HgN/A
7:20 AM52 °FLight rain. Passing clouds.21 mph100%29.33 "Hg1 mi
6:50 AM52 °FPassing clouds.23 mph100%29.30 "Hg3 mi
5:20 AM52 °FPassing clouds.25 mph100%29.27 "HgN/A
4:50 AM52 °FPassing clouds.24 mph100%29.27 "HgN/A
4:20 AM52 °FSprinkles. Passing clouds.22 mph100%29.24 "HgN/A
3:50 AM52 °FFog.24 mph100%29.24 "Hg1 mi
3:20 AM52 °FPassing clouds.24 mph100%29.24 "HgN/A
2:50 AM52 °FPassing clouds.21 mph100%29.21 "HgN/A
2:20 AM52 °FPartly cloudy.22 mph100%29.21 "HgN/A
1:50 AM52 °FPassing clouds.22 mph100%29.21 "HgN/A
1:20 AM52 °FPassing clouds.23 mph100%29.18 "Hg6 mi
12:50 AM52 °FPassing clouds.21 mph100%29.18 "HgN/A
12:20 AM52 °FSprinkles. Passing clouds.22 mph100%29.18 "Hg4 mi
11:50 PM
Oct 19
52 °FPassing clouds.22 mph100%29.15 "HgN/A
11:20 PM52 °FPassing clouds.23 mph100%29.15 "HgN/A
10:50 PM52 °FPassing clouds.23 mph100%29.15 "HgN/A
10:20 PM52 °FLow clouds.25 mph100%29.15 "Hg5 mi
9:50 PM54 °FPassing clouds.20 mph94%29.15 "HgN/A
9:20 PM52 °FPassing clouds.23 mph100%29.12 "HgN/A
8:50 PM52 °FPassing clouds.22 mph100%29.12 "HgN/A
8:20 PM54 °FPassing clouds.23 mph94%29.12 "HgN/A
7:50 PM54 °FPassing clouds.23 mph94%29.12 "HgN/A
7:20 PM54 °FPassing clouds.24 mph94%29.12 "HgN/A
6:50 PM54 °FOvercast.24 mph94%29.12 "HgN/A
6:20 PM54 °FPartly sunny.25 mph94%29.12 "Hg6 mi
5:50 PM54 °FPartly sunny.24 mph94%29.15 "Hg5 mi
5:20 PM54 °FPartly sunny.23 mph94%29.15 "Hg5 mi
4:50 PM52 °FSprinkles. Partly sunny.23 mph100%29.15 "Hg5 mi
4:20 PM54 °FOvercast.30 mph94%29.15 "Hg4 mi
3:50 PM54 °FLow clouds.30 mph94%29.15 "Hg4 mi
3:20 PM54 °FLight rain. Partly sunny.32 mph100%29.18 "Hg3 mi
2:50 PM55 °FOvercast.31 mph88%29.18 "Hg5 mi
2:20 PM55 °FOvercast.31 mph88%29.21 "Hg6 mi
1:50 PM55 °FOvercast.33 mph88%29.21 "Hg6 mi
1:20 PM55 °FPartly sunny.36 mph94%29.24 "Hg5 mi
12:50 PM55 °FOvercast.35 mph94%29.24 "Hg5 mi
12:20 PM55 °FOvercast.33 mph94%29.27 "Hg5 mi
11:50 AM54 °FPartly sunny.33 mph100%29.27 "Hg5 mi
11:20 AM54 °FPartly sunny.30 mph100%29.27 "Hg5 mi
10:50 AM54 °FBroken clouds.30 mph94%29.30 "Hg4 mi
10:20 AM54 °FPartly sunny.28 mph94%29.30 "Hg4 mi
Weather by CustomWeather, © 2014

See weather overviewHow to use our weather pages